Simultaneous Nadir Overpasses (SNOs) Predictions

Prediction of SNOs between NOAA-15 and METOP-C Satellite Orbit:

Table of predicted SNOs for the next 14.0 days since TLE Epoch: 5/17/2019
Index Date (NOAA-15) Time (NOAA-15) Lat,Lon (NOAA-15) SZA (NOAA-15 ) Date (METOP-C) Time (METOP-C) Lat,Lon (METOP-C) SZA (METOP-C ) Distance(km) Time Diff (sec)
1 05/25/2019 10:26:31 80.81, 56.36 61.48 05/25/2019 10:25:19 80.80, 56.38 61.45 1.16 72
2 05/25/2019 11:17:05 -80.80,-136.20 118.53 05/25/2019 11:16:01 -80.79,-136.32 118.57 2.23 64
3 05/25/2019 12:07:33 80.79, 31.37 61.48 05/25/2019 12:06:40 80.81, 31.26 61.46 2.69 53
4 05/25/2019 12:58:08 -80.81,-161.55 118.54 05/25/2019 12:57:22 -80.81,-161.45 118.55 1.90 46
5 05/25/2019 13:48:37 80.81, 5.66 61.45 05/25/2019 13:48:02 80.80, 5.78 61.43 2.61 35
6 05/25/2019 14:39:11 -80.81, 173.10 118.56 05/25/2019 14:38:44 -80.80, 173.08 118.58 1.37 27
7 05/25/2019 15:29:39 80.80, -19.33 61.45 05/25/2019 15:29:23 80.81, -19.34 61.45 1.37 16
8 05/25/2019 16:20:13 -80.80, 148.10 118.56 05/25/2019 16:20:05 -80.81, 147.96 118.56 3.07 8
9 05/25/2019 17:10:42 80.80, -44.67 61.43 05/25/2019 17:10:45 80.80, -44.82 61.42 2.61 3
10 05/25/2019 18:01:17 -80.82, 122.40 118.59 05/25/2019 18:01:27 -80.80, 122.48 118.60 2.36 10
11 05/25/2019 18:51:44 80.81, -70.02 61.41 05/25/2019 18:52:05 80.82, -69.94 61.44 1.56 21
12 05/25/2019 19:42:18 -80.81, 97.40 118.59 05/25/2019 19:42:47 -80.81, 97.36 118.58 1.35 29
13 05/25/2019 20:32:47 80.81, -95.37 61.40 05/25/2019 20:33:27 80.81, -95.42 61.40 1.12 40
14 05/25/2019 21:23:21 -80.81, 72.06 118.61 05/25/2019 21:24:09 -80.81, 71.88 118.61 3.11 48
15 05/25/2019 22:13:50 80.82,-120.71 61.38 05/25/2019 22:14:48 80.82,-120.55 61.42 2.99 58
16 05/25/2019 23:04:24 -80.82, 46.71 118.63 05/25/2019 23:05:30 -80.82, 46.76 118.59 1.02 66




NCC Satellite Simultaneous Nadir Overpasses (SNOs) Prediction Service
